Preview of NWS' New Version of Forecast
This preview is not operational and should not be used for support decisions.
Latest weather observations around

Fort Myers, Page Field (KFMY)

Using English Units (Switch to International System of Units)
Date/ Time (EST) Wind (mph) Vis. (mi) Weather Sky Cond. Temp (°F) Rel. Humidity Wind Chill (°F) Heat Index (°F) Pressure Precip. (in)
Air Dwpt 6 hour Altimeter (inHg) Sea level (inHg) 1 hr 3 hr 6 hr
Max Min
Jan 18 08:53 NE 8 10 Clear CLR 59 45     60%     30.18 30.18      
Jan 18 07:53 NE 3 10 Clear CLR 52 46     80%     30.17 30.17      
Jan 18 06:53 Calm 10 Clear CLR 51 46     83%     30.17 30.17      
Jan 18 05:53 Calm 10 Clear CLR 52 46     80%     30.15 30.16      
Jan 18 04:53 NNE 3 10 Clear CLR 52 48     86%     30.14 30.15      
Jan 18 03:53 Calm 10 Clear CLR 55 48     77%     30.15 30.15      
Jan 18 02:53 N 5 10 Clear CLR 55 48     77%     30.16 30.16      
Jan 18 01:53 NNE 6 10 Clear CLR 56 49     77%     30.17 30.17      
Jan 18 00:53 N 7 10 Clear CLR 56 50     80%     30.18 30.19      
Jan 17 23:53 NNW 7 10 Clear CLR 57 54     89%     30.2 30.2      
Jan 17 22:53 NNW 7 10 Clear CLR 57 54     89%     30.2 30.2      
Jan 17 21:53 NW 3 10 Clear CLR 59 54     83%     30.19 30.19      
Jan 17 20:53 Calm 10 Clear CLR 60 54     80%     30.18 30.18      
Jan 17 19:53 NNW 8 10 Clear CLR 61 55     81%     30.19 30.19      
Jan 17 18:53 WNW 6 10 Clear CLR 65 54     68%     30.18 30.18      
Jan 17 17:53 W 7 10 Clear CLR 68 51     55%     30.16 30.16      
Jan 17 16:53 WSW 9 10 Clear CLR 72 46     40%   71 30.15 30.15      
Jan 17 15:53 W 7 10 Clear CLR 75        %     30.15 30.15      
Jan 17 14:53 WNW 5 10 Clear CLR 74 42     32%   73 30.15 30.16      
Jan 17 13:53 Calm 10 Clear CLR 73 41     31%   72 30.17 30.17      
Jan 17 12:53 NE 6 10 Clear CLR 73 40     30%   71 30.19 30.2      
Jan 17 11:53 6 10 Clear CLR 69 50     51%     30.23 30.23      
Jan 17 10:53 ENE 6 10 Clear CLR 65 47     52%     30.25 30.25      
Jan 17 09:53 E 6 10 Clear CLR 58 46     65%     30.25 30.26      
Jan 17 08:53 NNE 7 10 Clear CLR 53 45     74%     30.24 30.25      
Jan 17 07:53 N 5 7 Clear CLR 48 44     86% 46   30.23 30.24      
Jan 17 06:53 Calm 10 Clear CLR 45 42     90%     30.22 30.22      
Jan 17 05:53 Calm 10 Clear CLR 46 42     86%     30.21 30.21      
Jan 17 04:53 NE 5 10 Clear CLR 45 42     90% 43   30.19 30.19      
Jan 17 03:53 NE 3 10 Clear CLR 46 42     86% 45   30.2 30.21      
Jan 17 02:53 NE 6 10 Clear CLR 47 41     80% 44   30.21 30.22      
Jan 17 01:53 NE 6 10 Clear CLR 48 41     77% 45   30.22 30.22      
Jan 17 00:53 NNE 6 10 Clear CLR 48 42     80% 45   30.22 30.22      
Jan 16 23:53 NNE 9 10 Clear CLR 51 42     71%     30.24 30.24      
Jan 16 22:53 NNE 6 10 Clear CLR 52 42     69%     30.24 30.25      
Jan 16 21:53 NNE 8 10 Clear CLR 54 42     64%     30.24 30.24      
Jan 16 20:53 NNE 7 10 Clear CLR 55 42     62%     30.22 30.22      
Jan 16 19:53 NNE 10 10 Clear CLR 58 41     53%     30.22 30.22      
Jan 16 18:53 NNE 8 10 Partly Cloudy SCT120 61 40     46%     30.2 30.2      
Jan 16 17:53 NNE 8 10 Clear CLR 64 38     38%     30.17 30.18      
Jan 16 16:53 NNE 8 10 Clear CLR 67 38     34%     30.17 30.17      
Jan 16 15:53 N 8 10 Clear CLR 68 38     33%     30.17 30.17      
Jan 16 14:53 N 11 10 Clear CLR 68 39     35%     30.17 30.17      
Jan 16 13:53 NE 7 10 Clear CLR 65 40     40%     30.18 30.19      
Jan 16 12:53 NNE 9 10 Clear CLR 63 41     45%     30.21 30.21      
Jan 16 11:53 N 10 10 Clear CLR 62 42     48%     30.24 30.25      
Jan 16 10:53 N 9 10 Clear CLR 58 43     57%     30.26 30.26      
Jan 16 09:53 NNE 10 10 Clear CLR 55 43     64%     30.26 30.26      
Jan 16 08:53 N 11 10 Clear CLR 51 42     71%     30.24 30.25      
Jan 16 07:53 NNE 7 10 Clear CLR 47 42     83% 44   30.22 30.22      
Jan 16 06:53 N 7 10 Clear CLR 46 42     86% 42   30.22 30.22      
Jan 16 05:53 NNE 5 10 Clear CLR 46 42     86% 44   30.2 30.2      
Jan 16 04:53 NNE 5 10 Clear CLR 46 43     89% 44   30.18 30.19      
Jan 16 03:53 NNE 8 10 Clear CLR 47 43     86% 43   30.2 30.2      
Jan 16 02:53 N 7 10 Clear CLR 47 43     86% 44   30.21 30.21      
Jan 16 01:53 NNE 6 10 Clear CLR 48 43     83% 45   30.2 30.2      
Jan 16 00:53 NNE 8 10 Clear CLR 49 43     80% 45   30.2 30.2      
Jan 15 23:53 NNE 10 10 Clear CLR 50 43     77%     30.2 30.21      
Jan 15 22:53 N 8 10 Clear CLR 52 44     74%     30.22 30.22      
Jan 15 21:53 N 7 10 Clear CLR 53 44     71%     30.19 30.2      
Jan 15 20:53 N 6 10 Clear CLR 54 44     69%     30.18 30.19      
Jan 15 19:53 N 7 10 Clear CLR 56 45     67%     30.17 30.17      
Jan 15 18:53 N 8 10 Clear CLR 58 44     60%     30.16 30.17      
Jan 15 17:53 NNW 10 10 Clear CLR 60 44     55%     30.16 30.16      
Jan 15 16:53 NNW 10 10 Clear CLR 63 43     48%     30.14 30.14      
Jan 15 15:53 NNW 9 10 Clear CLR 64 42     45%     30.13 30.14      
Jan 15 14:53 N 9 10 Clear CLR 63 43     48%     30.13 30.14      
Jan 15 13:53 NW 11 10 Clear CLR 64 43     46%     30.15 30.15      
Jan 15 12:53 NNW 9 10 Clear CLR 62 43     50%     30.16 30.17      
Jan 15 11:53 N 6 10 Clear CLR 61 44     54%     30.2 30.2      
Jan 15 10:53 NNW 8 10 Clear   60 45     57%     30.21 30.22      
Jan 15 09:53 NNE 9 10 Clear CLR 59 47     64%     30.22 30.22      
May 14 11:53 SSW 6 5 Light Rain and Fog/Mist SCT100 OVC120 75 72     90%   76 29.93 29.94 0    
May 14 05:53 SE 5 8 Light Rain SCT006 BKN011 OVC030 71 70     96%   72 29.93 29.93 0    
May 13 13:07 E 8 9 Clear   75 71     88%   76 30.03   0    
Notice The following observation data may not be complete
May 12 19:53   10 Clear CLR          %              
May 12 16:53 ENE 13 10 Clear CLR 83 63     51%   84 30.04 30.04      
May 12 12:53 NE 7 8 Cloudy OVC100 81 65     58%   83 30.12 30.12      
May 12 05:53 Calm 7 Clear CLR 72 62     71%   72 30.07 30.07 0    
May 12 02:53 Calm 7 Clear CLR 74 60     62%   74 30.07 30.07      
May 12 01:53 Calm 6 Haze CLR 75 58     55%   75 30.08 30.09      
May 12 00:53 S 3 7 Clear CLR 77 57     50%   77 30.1 30.11      
Jun 11 18:29 E 11 9 Clear   76 72     88%   77 30.07   0    
Jun 11 17:32 3 6 Cloudy SCT048 BKN090 OVC110 83 75     77%   90 30.05   0    
Jun 11 15:53 SE 9 10 Clear   90 77     66%   103 30.07 30.08      
Jun 11 06:44 E 5 6 Fog/Mist SCT005 77 77     100%   79 30.08        
Jun 10 22:53 E 5 10 Clear   75 75     100%   77 30.08 30.08      
Jun 10 00:18 Calm 10 Light Rain BKN024 OVC034 79 76     90%   83 29.96   0    
Jun 09 21:53 SSW 3 10 Clear CLR 82 71     69%   86 29.94 29.95      
Jun 09 07:53 ENE 9 8 Mostly Cloudy BKN006 75 74     96%   77 29.9 29.91      
Notice The following observation data may not be complete
Jun 06 14:53     Clear            %     29.77 29.78 0    
Notice The following observation data may not be complete
Jun 06 13:43   10 Cloudy FEW011 OVC017          %         0    
Jun 05 16:53 NNW 7 10 Cloudy FEW010 BKN041 OVC110 76 75     97%   78 29.9 29.91 0 0